Volver al catálogo

THORAD AGENA D DEB

ActivoPO
NORAD 4842·DEBRIS·🇺🇸 United States

Lanzado Apr 8, 1970 desde Vandenberg Space Force Base

Loading…

Próximos Pases

TLE

Source: Space-Track
1 04842U 70025EE  26218.94720865  .00001818  00000-0  10468-2 0  9991
2 04842  99.9474 229.9675 0017083 117.1105 243.1807 14.10619644830065

Sigue THORAD AGENA D DEB en tiempo real con AllMySat

Download on the App Store